CW8998 Weather Reports


Display with metric or nautical units.
time (UTC)temp
F
wind
direction
speed
MPH
gust
MPH
rain 1hr
in
rain 24hr
in
rain mn
in
humidity
%
barometer
mb
20260902172528 81 33 3.0 9.0 0.00 0.00 0.00 50 1013.6
20260902172030 80 26 2.0 7.0 0.00 0.00 0.00 52 1013.6
20260902171547 80 26 4.0 7.0 0.00 0.00 0.00 51 1013.7
20260902171028 79 267 1.0 8.0 0.00 0.00 0.00 53 1013.6
20260902170525 79 53 3.0 8.0 0.00 0.00 0.00 53 1013.8
20260902170044 79 20 2.0 8.0 0.00 0.00 0.00 55 1013.6
20260902165529 79 47 1.0 4.0 0.00 0.00 0.00 57 1013.6
20260902165026 78 318 1.0 3.0 0.00 0.00 0.00 58 1013.5
20260902164545 78 40 0.0 6.0 0.00 0.00 0.00 58 1013.3
20260902164026 78 44 1.0 8.0 0.00 0.00 0.00 58 1013.2
20260902163526 79 332 3.0 8.0 0.00 0.00 0.00 56 1013.4
20260902163053 78 25 2.0 7.0 0.00 0.00 0.00 58 1013.4
20260902162528 78 59 3.0 7.0 0.00 0.00 0.00 58 1013.2
20260902162029 77 300 3.0 8.0 0.00 0.00 0.00 61 1013.4
20260902161544 77 178 2.0 8.0 0.00 0.00 0.00 61 1013.5
20260902161028 77 175 2.0 6.0 0.00 0.00 0.00 61 1013.6
20260902160529 77 5 1.0 6.0 0.00 0.00 0.00 62 1013.6
20260902160041 76 39 2.0 5.0 0.00 0.00 0.00 63 1013.6
20260902155528 76 237 0.0 4.0 0.00 0.00 0.00 64 1013.7
20260902155028 76 21 1.0 6.0 0.00 0.00 0.00 66 1013.7
20260902154549 75 33 1.0 6.0 0.00 0.00 0.00 66 1013.5
20260902154026 74 69 1.0 4.0 0.00 0.00 0.00 68 1013.5
20260902153529 74 0 1.0 4.0 0.00 0.00 0.00 68 1013.5
20260902153042 74 271 1.0 3.0 0.00 0.00 0.00 69 1013.5
20260902152529 73 13 0.0 3.0 0.00 0.00 0.00 70 1013.8
20260902152027 72 0 0.0 3.0 0.00 0.00 0.00 70 1013.9
20260902151553 73 355 0.0 4.0 0.00 0.00 0.00 71 1013.9
20260902151029 73 311 1.0 4.0 0.00 0.00 0.00 70 1013.8
20260902150529 73 0 0.0 3.0 0.00 0.00 0.00 70 1013.9
20260902150043 73 72 1.0 4.0 0.00 0.00 0.00 69 1013.9
20260902145530 72 352 1.0 4.0 0.00 0.00 0.00 71 1013.8
20260902145030 72 294 0.0 3.0 0.00 0.00 0.00 71 1013.7
20260902144541 72 34 0.0 3.0 0.00 0.00 0.00 71 1013.4
20260902144028 71 292 0.0 3.0 0.00 0.00 0.00 71 1013.6
20260902143528 71 198 1.0 3.0 0.00 0.00 0.00 72 1013.7
20260902143051 72 0 1.0 3.0 0.00 0.00 0.00 72 1013.2
20260902142528 72 0 0.0 2.0 0.00 0.00 0.00 71 1013.4
20260902142028 71 0 0.0 3.0 0.00 0.00 0.00 72 1013.4
20260902141545 71 0 0.0 3.0 0.00 0.00 0.00 72 1013.4
20260902141030 71 0 0.0 2.0 0.00 0.00 0.00 75 1013.5
20260902140528 71 16 0.0 2.0 0.00 0.00 0.00 73 1013.5
20260902140051 71 0 0.0 2.0 0.00 0.00 0.00 73 1013.5
20260902135531 70 355 0.0 2.0 0.00 0.00 0.00 74 1013.3
20260902135029 69 313 0.0 2.0 0.00 0.00 0.00 75 1013.4
20260902134557 69 0 0.0 2.0 0.00 0.00 0.00 77 1013.3
20260902134027 69 0 0.0 2.0 0.00 0.00 0.00 76 1013.5
20260902133529 69 303 0.0 2.0 0.00 0.00 0.00 76 1013.5
20260902133056 68 0 0.0 2.0 0.00 0.00 0.00 77 1013.4
20260902132527 67 0 0.0 2.0 0.00 0.00 0.00 79 1013.4
20260902132028 66 0 0.0 2.0 0.00 0.00 0.00 81 1013.6
20260902131548 65 0 0.0 3.0 0.00 0.00 0.00 82 1013.7
20260902131029 65 0 0.0 3.0 0.00 0.00 0.00 83 1013.8
20260902130529 64 0 1.0 3.0 0.00 0.00 0.00 84 1013.9
20260902130050 64 0 0.0 1.0 0.00 0.00 0.00 84 1013.9
20260902125529 64 0 0.0 1.0 0.00 0.00 0.00 84 1013.8
20260902125029 64 0 0.0 1.0 0.00 0.00 0.00 84 1013.8
20260902124553 63 0 0.0 2.0 0.00 0.00 0.00 84 1013.9
20260902124028 63 0 0.0 2.0 0.00 0.00 0.00 85 1013.8
20260902123528 63 11 0.0 2.0 0.00 0.00 0.00 86 1013.7
20260902123048 63 22 0.0 2.0 0.00 0.00 0.00 87 1013.6
20260902122528 63 0 0.0 2.0 0.00 0.00 0.00 87 1013.8
20260902122028 63 350 0.0 2.0 0.00 0.00 0.00 87 1013.8
20260902121548 63 0 0.0 2.0 0.00 0.00 0.00 87 1013.8
20260902121030 63 350 0.0 3.0 0.00 0.00 0.00 86 1013.6
20260902120529 63 305 1.0 3.0 0.00 0.00 0.00 86 1013.8
20260902120043 63 319 2.0 3.0 0.00 0.00 0.00 85 1013.6
20260902115528 63 317 0.0 3.0 0.00 0.00 0.00 85 1013.4
20260902115029 64 0 0.0 1.0 0.00 0.00 0.00 86 1013.5
20260902114556 64 0 0.0 1.0 0.00 0.00 0.00 86 1013.5
20260902114029 64 0 0.0 1.0 0.00 0.00 0.00 86 1013.5
20260902113529 64 0 0.0 1.0 0.00 0.00 0.00 86 1013.6
20260902113041 64 0 0.0 1.0 0.00 0.00 0.00 86 1013.5
20260902112529 64 0 0.0 0.0 0.00 0.00 0.00 86 1013.7
20260902112029 64 0 0.0 0.0 0.00 0.00 0.00 85 1013.6
20260902111548 64 0 0.0 0.0 0.00 0.00 0.00 85 1013.6
20260902111029 64 0 0.0 1.0 0.00 0.00 0.00 85 1013.6
20260902110529 64 0 0.0 1.0 0.00 0.00 0.00 85 1013.6
20260902110042 64 0 0.0 1.0 0.00 0.00 0.00 85 1013.6
20260902105528 63 0 0.0 1.0 0.00 0.00 0.00 85 1013.8
20260902105029 63 0 0.0 1.0 0.00 0.00 0.00 85 1013.6
20260902104543 63 0 0.0 0.0 0.00 0.00 0.00 85 1013.7
20260902104028 63 0 0.0 0.0 0.00 0.00 0.00 85 1013.6
20260902103528 63 0 0.0 0.0 0.00 0.00 0.00 85 1013.6
20260902103053 63 0 0.0 1.0 0.00 0.00 0.00 85 1013.6
20260902102531 63 0 0.0 1.0 0.00 0.00 0.00 84 1013.5
20260902102029 63 38 0.0 0.0 0.00 0.00 0.00 84 1013.5
20260902101545 64 0 0.0 1.0 0.00 0.00 0.00 84 1013.5
20260902101028 64 0 0.0 1.0 0.00 0.00 0.00 83 1013.4
20260902100528 64 0 0.0 0.0 0.00 0.00 0.00 83 1013.4
20260902100100 64 0 0.0 1.0 0.00 0.00 0.00 83 1013.3
20260902095533 64 0 0.0 2.0 0.00 0.00 0.00 82 1013.3
20260902095030 64 0 0.0 2.0 0.00 0.00 0.00 82 1013.2
20260902094553 64 0 0.0 2.0 0.00 0.00 0.00 82 1013.2
20260902094027 64 0 0.0 2.0 0.00 0.00 0.00 81 1013.3
20260902093529 64 0 0.0 2.0 0.00 0.00 0.00 80 1013.5
20260902093053 64 57 0.0 2.0 0.00 0.00 0.00 80 1013.5
20260902092528 65 0 0.0 1.0 0.00 0.00 0.00 79 1013.5
20260902092029 65 0 0.0 0.0 0.00 0.00 0.00 79 1013.4
20260902091603 65 0 0.0 0.0 0.00 0.00 0.00 78 1013.3
20260902091032 65 0 0.0 0.0 0.00 0.00 0.00 78 1013.5
20260902090531 65 0 0.0 1.0 0.00 0.00 0.00 78 1013.5
20260902090049 66 0 0.0 2.0 0.00 0.00 0.00 77 1013.4
20260902085530 66 0 0.0 2.0 0.00 0.00 0.00 76 1013.6
20260902085029 66 0 1.0 2.0 0.00 0.00 0.00 76 1013.5
20260902084546 67 0 0.0 1.0 0.00 0.00 0.00 75 1013.6
20260902084027 67 0 0.0 1.0 0.00 0.00 0.00 74 1013.6
20260902083530 67 0 0.0 4.0 0.00 0.00 0.00 75 1013.5
20260902083046 67 0 1.0 4.0 0.00 0.00 0.00 75 1013.5
20260902082527 67 333 0.0 1.0 0.00 0.00 0.00 75 1013.8
20260902082029 67 0 0.0 2.0 0.00 0.00 0.00 75 1013.7
20260902081543 67 0 0.0 2.0 0.00 0.00 0.00 75 1013.6
20260902081030 67 128 0.0 2.0 0.00 0.00 0.00 75 1013.5
20260902080530 67 0 0.0 2.0 0.00 0.00 0.00 76 1013.4
20260902080108 67 0 0.0 3.0 0.00 0.00 0.00 76 1013.2
20260902075529 67 182 0.0 3.0 0.00 0.00 0.00 75 1013.2
20260902075029 67 175 0.0 2.0 0.00 0.00 0.00 76 1013.2
20260902074550 67 0 0.0 2.0 0.00 0.00 0.00 76 1013.1
20260902074030 67 0 0.0 4.0 0.00 0.00 0.00 76 1013.0
20260902073528 67 0 1.0 5.0 0.00 0.00 0.00 78 1013.0
20260902073044 67 0 1.0 5.0 0.00 0.00 0.00 79 1012.8
20260902072528 67 0 0.0 1.0 0.00 0.00 0.00 78 1012.7
20260902072028 68 0 0.0 1.0 0.00 0.00 0.00 78 1012.6
20260902071603 68 0 0.0 1.0 0.00 0.00 0.00 76 1012.9
20260902071029 68 0 0.0 2.0 0.00 0.00 0.00 76 1012.8
20260902070529 68 0 0.0 2.0 0.00 0.00 0.00 77 1013.0
20260902070057 68 0 0.0 2.0 0.00 0.00 0.00 78 1013.1
20260902065529 68 0 0.0 4.0 0.00 0.00 0.00 79 1013.1
20260902065028 68 0 0.0 4.0 0.00 0.00 0.00 78 1013.1
20260902064542 68 173 0.0 4.0 0.00 0.00 0.00 78 1013.1
20260902064030 68 0 0.0 2.0 0.00 0.00 0.00 78 1013.0
20260902063527 68 0 0.0 2.0 0.00 0.00 0.00 78 1013.2
20260902063048 68 0 0.0 3.0 0.00 0.00 0.00 77 1013.3
20260902062527 68 0 0.0 4.0 0.00 0.00 0.00 77 1013.4
20260902062026 68 195 2.0 5.0 0.00 0.00 0.00 77 1013.3
20260902061028 68 160 0.0 4.0 0.00 0.00 0.00 76 1013.3
20260902060525 68 0 1.0 4.0 0.00 0.00 0.00 76 1013.3
20260902060044 68 173 1.0 4.0 0.00 0.00 0.00 77 1013.2
20260902055529 68 130 1.0 4.0 0.00 0.00 0.00 75 1013.2
20260902055026 67 0 1.0 4.0 0.00 0.00 0.00 78 1013.2
20260902054546 67 0 0.0 4.0 0.00 0.00 0.00 78 1013.3
20260902054028 67 11 1.0 3.0 0.00 0.00 0.00 78 1013.3
20260902053528 68 0 1.0 3.0 0.00 0.00 0.00 80 1013.5
20260902053054 67 340 0.0 1.0 0.00 0.00 0.00 79 1013.5
20260902052529 68 0 0.0 1.0 0.00 0.00 0.00 80 1013.7
20260902052026 68 0 0.0 2.0 0.00 0.00 0.00 80 1013.9
20260902051548 68 0 0.0 3.0 0.00 0.00 0.00 80 1013.9
20260902051029 68 0 0.0 3.0 0.00 0.00 0.00 80 1013.9
20260902050529 68 315 1.0 3.0 0.00 0.00 0.00 79 1014.1
20260902050047 68 21 1.0 2.0 0.00 0.00 0.00 79 1013.9
20260902045529 69 0 0.0 1.0 0.00 0.00 0.00 79 1014.1
20260902045029 69 0 0.0 3.0 0.00 0.00 0.00 78 1014.1
20260902044544 69 0 0.0 3.0 0.00 0.00 0.00 77 1014.3
20260902044030 70 5 2.0 3.0 0.00 0.00 0.00 76 1014.2
20260902043528 70 5 0.0 2.0 0.00 0.00 0.00 75 1014.3
20260902043042 70 0 0.0 1.0 0.00 0.00 0.00 74 1014.5
20260902042528 70 0 0.0 1.0 0.00 0.00 0.00 73 1014.3
20260902042030 71 0 0.0 1.0 0.00 0.00 0.00 73 1014.3
20260902041551 71 5 0.0 1.0 0.00 0.00 0.00 71 1014.4
20260902041026 71 0 0.0 2.0 0.00 0.00 0.00 69 1014.1
20260902040529 71 0 0.0 2.0 0.00 0.00 0.00 69 1014.0
20260902040044 71 0 0.0 2.0 0.00 0.00 0.00 69 1013.9
20260902035525 71 5 0.0 2.0 0.00 0.00 0.00 70 1014.1
20260902035026 71 0 0.0 2.0 0.00 0.00 0.00 70 1014.1
20260902034545 71 0 0.0 2.0 0.00 0.00 0.00 71 1014.3
20260902034028 71 0 0.0 2.0 0.00 0.00 0.00 69 1014.4
20260902033529 71 5 0.0 2.0 0.00 0.00 0.00 68 1014.3
20260902033044 71 306 0.0 1.0 0.00 0.00 0.00 69 1014.2
20260902032529 71 0 0.0 1.0 0.00 0.00 0.00 69 1014.2
20260902032032 71 0 0.0 0.0 0.00 0.00 0.00 69 1014.4
20260902031550 71 0 0.0 0.0 0.00 0.00 0.00 69 1014.4
20260902031028 71 0 0.0 0.0 0.00 0.00 0.00 69 1014.4
20260902030529 72 0 0.0 0.0 0.00 0.00 0.00 69 1014.3
20260902030045 72 0 0.0 0.0 0.00 0.00 0.00 69 1014.4
20260902025530 72 0 0.0 0.0 0.00 0.00 0.00 69 1014.3
20260902025029 72 0 0.0 0.0 0.00 0.00 0.00 68 1014.3
20260902024547 72 0 0.0 1.0 0.00 0.00 0.00 68 1014.3
20260902024028 72 0 0.0 1.0 0.00 0.00 0.00 68 1014.3
20260902023529 72 0 0.0 1.0 0.00 0.00 0.00 68 1014.3
20260902023043 72 0 0.0 2.0 0.00 0.00 0.00 68 1014.3
20260902022529 73 0 0.0 2.0 0.00 0.00 0.00 66 1014.2
20260902022028 73 0 0.0 2.0 0.00 0.00 0.00 65 1014.2
20260902021549 73 290 0.0 2.0 0.00 0.00 0.00 62 1014.0
20260902021028 73 0 0.0 2.0 0.00 0.00 0.00 62 1013.8
20260902020526 74 0 0.0 2.0 0.00 0.00 0.00 62 1013.6
20260902020046 74 0 0.0 2.0 0.00 0.00 0.00 62 1013.5
20260902015530 74 0 0.0 1.0 0.00 0.00 0.00 61 1013.6
20260902015028 74 0 0.0 1.0 0.00 0.00 0.00 61 1013.8
20260902014548 74 0 0.0 2.0 0.00 0.00 0.00 61 1013.6
20260902014028 74 0 0.0 2.0 0.00 0.00 0.00 61 1013.6
20260902013529 75 0 0.0 2.0 0.00 0.00 0.00 62 1013.6
20260902013043 75 0 0.0 2.0 0.00 0.00 0.00 62 1013.7
20260902012529 75 0 0.0 2.0 0.00 0.00 0.00 62 1013.6
20260902012032 75 0 0.0 2.0 0.00 0.00 0.00 61 1013.7
20260902011549 75 0 0.0 1.0 0.00 0.00 0.00 62 1013.6
20260902011028 75 0 0.0 1.0 0.00 0.00 0.00 61 1013.5
20260902010529 75 0 0.0 1.0 0.00 0.00 0.00 61 1013.4
20260902010112 75 0 0.0 1.0 0.00 0.00 0.00 62 1013.4
20260902005526 75 0 0.0 2.0 0.00 0.00 0.00 62 1013.5
20260902005026 76 0 0.0 2.0 0.00 0.00 0.00 63 1013.5
20260902004546 76 207 0.0 1.0 0.00 0.00 0.00 61 1013.5
20260902004028 76 0 0.0 1.0 0.00 0.00 0.00 62 1013.5
20260902003529 77 0 0.0 1.0 0.00 0.00 0.00 60 1013.5
20260902003045 77 0 0.0 1.0 0.00 0.00 0.00 59 1013.4
20260902002528 77 0 0.0 2.0 0.00 0.00 0.00 58 1013.5
20260902002029 77 0 0.0 3.0 0.00 0.00 0.00 56 1013.3
20260902001542 78 0 0.0 3.0 0.00 0.00 0.00 56 1013.1
20260902001029 78 0 1.0 2.0 0.00 0.00 0.00 55 1013.2
20260902000529 78 0 0.0 4.0 0.00 0.00 0.00 55 1013.3
20260902000055 79 167 0.0 4.0 0.00 0.00 0.00 55 1013.6
20260901235527 79 168 1.0 4.0 0.00 0.00 0.00 58 1013.8
20260901235026 79 0 0.0 3.0 0.00 0.00 0.00 55 1013.8
20260901234548 79 0 1.0 3.0 0.00 0.00 0.00 53 1013.8
20260901234028 80 227 0.0 4.0 0.00 0.00 0.00 51 1013.9
20260901233529 80 0 0.0 4.0 0.00 0.00 0.00 52 1013.9
20260901233056 80 290 0.0 3.0 0.00 0.00 0.00 51 1013.8
20260901232528 80 0 0.0 3.0 0.00 0.00 0.00 52 1013.9
20260901232032 80 0 1.0 3.0 0.00 0.00 0.00 53 1014.2
20260901231552 81 263 1.0 3.0 0.00 0.00 0.00 54 1014.2
20260901231028 81 273 1.0 4.0 0.00 0.00 0.00 52 1014.2
20260901230529 81 260 1.0 4.0 0.00 0.00 0.00 51 1014.0
20260901230042 81 273 1.0 3.0 0.00 0.00 0.00 50 1014.0
20260901225530 81 0 0.0 3.0 0.00 0.00 0.00 50 1013.8
20260901225028 82 12 0.0 3.0 0.00 0.00 0.00 49 1013.8
20260901224551 82 0 1.0 3.0 0.00 0.00 0.00 48 1013.9
20260901224029 82 0 0.0 3.0 0.00 0.00 0.00 48 1014.0
20260901223528 82 289 0.0 3.0 0.00 0.00 0.00 47 1014.1
20260901223051 83 293 1.0 5.0 0.00 0.00 0.00 45 1014.1
20260901222528 83 0 1.0 5.0 0.00 0.00 0.00 45 1014.3
20260901222028 83 0 0.0 4.0 0.00 0.00 0.00 45 1014.1
20260901221545 83 244 1.0 4.0 0.00 0.00 0.00 44 1014.1
20260901221028 83 290 1.0 6.0 0.00 0.00 0.00 43 1013.9
20260901220533 83 275 1.0 6.0 0.00 0.00 0.00 43 1013.9
20260901220043 83 210 2.0 4.0 0.00 0.00 0.00 44 1013.8
20260901215529 84 293 1.0 6.0 0.00 0.00 0.00 43 1013.9
20260901215031 83 0 1.0 6.0 0.00 0.00 0.00 45 1013.8
20260901214543 82 279 3.0 7.0 0.00 0.00 0.00 45 1013.9
20260901214028 82 286 2.0 8.0 0.00 0.00 0.00 45 1014.0
20260901213528 82 288 4.0 8.0 0.00 0.00 0.00 44 1014.0
20260901213048 83 271 3.0 7.0 0.00 0.00 0.00 43 1013.9
20260901212529 83 0 1.0 5.0 0.00 0.00 0.00 45 1013.8
20260901212029 83 0 1.0 5.0 0.00 0.00 0.00 44 1013.9
20260901211547 83 300 2.0 4.0 0.00 0.00 0.00 43 1013.9
20260901211028 83 277 1.0 4.0 0.00 0.00 0.00 45 1013.9
20260901210527 82 314 1.0 8.0 0.00 0.00 0.00 44 1013.8
20260901210043 82 265 2.0 8.0 0.00 0.00 0.00 42 1013.9
20260901205529 82 294 4.0 7.0 0.00 0.00 0.00 42 1013.9
20260901205031 83 220 2.0 6.0 0.00 0.00 0.00 43 1014.0
20260901204548 83 274 2.0 6.0 0.00 0.00 0.00 41 1013.9
20260901204028 83 230 1.0 6.0 0.00 0.00 0.00 43 1013.9
20260901203528 83 235 3.0 6.0 0.00 0.00 0.00 43 1013.7
20260901203047 83 198 1.0 6.0 0.00 0.00 0.00 42 1013.8
20260901202529 83 224 1.0 6.0 0.00 0.00 0.00 42 1013.9
20260901202030 83 253 1.0 5.0 0.00 0.00 0.00 45 1014.0
20260901201546 83 198 1.0 5.0 0.00 0.00 0.00 45 1014.1
20260901201029 84 261 1.0 5.0 0.00 0.00 0.00 44 1014.1
20260901200529 84 246 1.0 6.0 0.00 0.00 0.00 44 1014.1
20260901200101 83 275 2.0 6.0 0.00 0.00 0.00 45 1014.1
20260901195529 82 174 1.0 6.0 0.00 0.00 0.00 45 1014.1
20260901195029 83 234 1.0 6.0 0.00 0.00 0.00 45 1014.1
20260901194555 82 171 1.0 8.0 0.00 0.00 0.00 47 1014.0
20260901194028 82 286 2.0 8.0 0.00 0.00 0.00 45 1014.2
20260901193530 82 279 2.0 8.0 0.00 0.00 0.00 46 1014.2
20260901193101 82 252 1.0 4.0 0.00 0.00 0.00 45 1014.3
20260901192528 82 254 1.0 6.0 0.00 0.00 0.00 47 1014.3
20260901192027 82 0 1.0 6.0 0.00 0.00 0.00 45 1014.5
20260901191547 81 355 2.0 6.0 0.00 0.00 0.00 45 1014.4
20260901191036 82 223 2.0 6.0 0.00 0.00 0.00 45 1014.4
20260901190528 82 261 0.0 4.0 0.00 0.00 0.00 44 1014.4
20260901190047 82 138 1.0 4.0 0.00 0.00 0.00 46 1014.5
20260901185526 83 234 0.0 3.0 0.00 0.00 0.00 45 1014.4
20260901185028 83 300 0.0 3.0 0.00 0.00 0.00 45 1014.4
20260901184553 81 332 0.0 4.0 0.00 0.00 0.00 47 1014.4
20260901184029 81 277 2.0 4.0 0.00 0.00 0.00 46 1014.4
20260901183528 82 247 1.0 4.0 0.00 0.00 0.00 46 1014.5
20260901183049 82 0 1.0 4.0 0.00 0.00 0.00 45 1014.7
20260901182526 82 209 0.0 5.0 0.00 0.00 0.00 46 1014.8
20260901182029 81 244 0.0 5.0 0.00 0.00 0.00 49 1014.9
20260901181556 81 219 1.0 3.0 0.00 0.00 0.00 48 1014.9
20260901181029 81 340 0.0 2.0 0.00 0.00 0.00 49 1014.9
20260901180527 81 67 1.0 3.0 0.00 0.00 0.00 49 1014.9
20260901180052 81 0 1.0 4.0 0.00 0.00 0.00 49 1015.0
20260901175529 81 355 1.0 4.0 0.00 0.00 0.00 50 1015.1
20260901175029 81 304 1.0 5.0 0.00 0.00 0.00 49 1015.0
20260901174602 80 38 1.0 5.0 0.00 0.00 0.00 49 1015.1
20260901174031 81 360 2.0 5.0 0.00 0.00 0.00 48 1015.2
20260901173528 80 11 0.0 3.0 0.00 0.00 0.00 49 1015.2
20260901173044 80 5 0.0 3.0 0.00 0.00 0.00 50 1015.3